Location: Oberwangen
(47.4286°N, 8.9679°E)
Time: 22:59:35
(UTC+00:00)

Cosmos 1943 - Pass Details

Date: 20 June 2021
Orbit: 832 x 851 km, 71.0° (Epoch: 23 July)

Event Time Altitude Azimuth Distance (km) Brightness Sun altitude
Exits shadow 23:37:01 27° 144° (SE) 1,568 4.2 -19.1°
Maximum altitude 23:39:01 34° 106° (ESE) 1,341 4.1 -19.1°
Drops below altitude 10° 23:44:03 10° 43° (NE) 2,465 6.4 -19.0°
Sets 23:46:41 0° 34° (NE) 3,407 7.4 -19.0°
